Location: Kopernik Observatory
(42.0014°N, 76.0372°W)
Time: 03:19:29
(UTC-05:00)

Daily predictions for brighter satellites

Satellite Brightness Start Highest point End
(mag) Time Altitude Azimuth Time Altitude Azimuth Time Altitude Azimuth
Cosmos 1980 Rocket 3.6 04:14:52 32° SE 04:14:52 32° SE 04:17:50 10° SSE
Timation 2 Rocket 4.4 04:28:20 32° S 04:31:41 66° ESE 04:38:30 10° NNE
USA 267 3.1 04:36:19 10° NE 04:42:46 70° NW 04:42:46 70° NW
Cosmos 1538 Rocket 4.4 04:42:17 54° SSE 04:43:07 62° ESE 04:48:21 10° NNE
COSMO-SKYMED 1 4.0 04:39:54 10° SE 04:43:51 36° ENE 04:44:39 33° NE
Meteor 2-4 Rocket 3.7 04:47:13 75° SSE 04:47:13 75° SSE 04:52:19 10° S
SL-16 R/B 2.8 04:51:39 34° N 04:53:51 53° ENE 04:59:22 10° SE
Okean-O 3.7 04:52:35 10° NNE 04:56:51 44° E 05:01:05 10° S
Okean 1 Rocket 4.1 04:54:14 10° SSE 04:58:22 44° E 05:02:35 10° NNE
Cosmos 2322 Rocket 2.7 04:56:14 33° N 04:58:39 56° ENE 05:04:13 10° SE
CZ-4C R/B 1.9 05:01:47 75° WSW 05:02:13 83° NW 05:08:11 10° NE
Meteor 2-20 4.3 04:57:24 10° SSW 05:03:28 71° W 05:09:33 10° N
Meteor 1-11 Rocket 3.8 05:00:42 10° SSW 05:06:57 60° WNW 05:12:20 10° N
Meteor 1-4 Rocket 3.7 05:03:30 10° SSE 05:07:07 45° E 05:10:46 10° NNE
BREEZE-M DEB (TANK) 3.0 05:10:42 86° SW 05:10:45 86° SSW 05:16:16 10° ESE
SeaSat 1 2.3 05:09:07 10° NNE 05:13:59 64° WNW 05:13:59 64° WNW
Feng Yun 1-1 Rocket 4.4 05:08:14 10° NNE 05:14:04 77° ESE 05:19:42 10° S
EO 1 Del DPAF 3.4 05:13:09 10° SSE 05:16:57 68° ENE 05:17:32 56° NNE
USA 234 3.3 05:11:00 10° ESE 05:17:33 78° NE 05:20:47 33° NW
CZ-2C R/B 3.3 05:17:03 10° NNE 05:21:43 48° E 05:26:13 10° S
Cosmos 2082 Rocket 4.2 05:25:06 13° NNW 05:25:06 13° NNW 05:26:07 10° N
Meteor 1-5 Rocket 4.0 05:17:56 10° SSW 05:23:19 65° WNW 05:28:37 10° N
deb Kosmos-1763 4.3 05:24:47 57° NNE 05:24:47 57° NNE 05:27:50 10° NNE
Cosmos 1500 3.2 05:27:34 10° S 05:31:25 79° E 05:35:16 10° N
SKYMED 2 3.4 05:27:30 10° S 05:31:49 68° W 05:33:15 40° NNW
NOAA 6 3.9 05:32:00 10° N 05:37:06 66° WNW 05:42:11 10° SSW
Nadezhda 4 Rocket 4.1 05:35:47 10° SSW 05:41:37 45° WNW 05:47:29 10° N
Cosmos 192 4.4 05:38:31 10° SW 05:43:18 52° WNW 05:48:07 10° N
Cosmos 773 Rocket 4.3 05:43:30 10° SW 05:48:22 42° WNW 05:53:17 10° N
Cosmos 2333 Rocket 4.5 05:47:44 10° N 05:51:40 18° NE 05:55:34 10° E
Cosmos 389 Rocket 3.8 05:50:04 10° SSE 05:53:30 43° E 05:56:56 10° NNE
Cosmos 2285 Rocket 4.0 05:47:19 10° SSW 05:53:39 89° ESE 05:59:59 10° NNE
Cosmos 2360 Rocket 2.5 05:48:42 10° NNW 05:54:23 66° ENE 06:00:00 10° SE
COSMOS 2441 4.5 05:49:40 10° NNE 05:54:32 78° ESE 05:59:20 10° S
COSMOS 2428 4.3 05:50:06 10° N 05:55:11 32° NE 06:00:14 10° ESE
Cosmos 1980 Rocket 3.8 05:56:43 16° WSW 05:56:43 16° WSW 05:58:55 10° SW
Cosmos 1066 Rocket 4.1 05:52:00 10° N 05:57:24 88° E 06:02:50 10° S
Cosmos 1680 Rocket 3.4 05:56:34 10° SSW 06:01:46 77° WNW 06:07:01 10° NNE
Cosmos 1025 Rocket 3.3 05:59:07 18° NNW 06:01:54 43° W 06:05:58 10° SSW
Cosmos 2219 Rocket 4.1 05:58:17 10° N 06:02:51 24° NE 06:07:24 10° ESE
Cosmos 1666 3.5 05:59:51 10° S 06:03:35 53° E 06:07:19 10° NNE
Okean 1-7 Rocket 3.7 05:59:28 10° NNW 06:03:55 58° W 06:08:23 10° S
CZ-4 R/B 3.5 06:00:19 10° NNE 06:04:05 32° E 06:07:53 10° SSE
IDEFIX/ARIANE 42P 2.8 06:02:35 10° N 06:07:34 47° WNW 06:12:32 10° SW
BREEZE-M DEB (TANK) 2.3 06:06:51 32° W 06:07:44 56° NNW 06:11:50 10° ENE
S3M 4.2 06:06:25 10° N 06:12:37 75° E 06:18:53 10° SSE
Cosmos 1371 Rocket 4.1 06:14:25 10° NNW 06:19:41 80° ENE 06:24:51 10° SSE
COSMO-SKYMED 1 3.9 06:16:51 10° SW 06:20:06 21° W 06:21:52 16° WNW
Aureole 2 Rocket 4.0 06:17:27 10° N 06:20:26 30° ENE 06:23:11 10° SE
Cosmos 2237 Rocket 4.4 06:16:44 10° N 06:20:40 19° NE 06:24:35 10° E
Cosmos 1975 3.1 06:19:34 10° SSW 06:23:22 44° WNW 06:27:13 10° N
USA 267 4.1 06:19:37 10° NE 06:25:08 30° NNW 06:30:07 12° WNW
ATLAS 5 CENTAUR R/B 3.9 06:20:31 10° NNW 06:25:37 30° NE 06:31:10 10° ESE
SJ-12 4.1 06:23:03 10° N 06:26:56 46° WNW 06:30:49 10° SW
Thor Agena Rocket 3.5 06:23:07 10° S 06:28:07 63° WSW 06:33:11 10° NNW
CSL-04 Debris 4.5 06:22:53 10° NNE 06:28:21 74° ESE 06:33:48 10° S
Okean-O 4.0 06:29:57 10° NNW 06:32:59 18° WNW 06:36:01 10° WSW
SJ-7 4.4 06:31:50 10° N 06:35:51 65° WNW 06:39:55 10° SSW
Cosmos 2026 Rocket 4.4 06:30:45 10° SW 06:36:37 41° WNW 06:42:36 10° N
SL-16 R/B 3.4 06:33:33 11° NW 06:37:32 22° W 06:41:48 10° SSW
Cosmos 2266 Rocket 4.2 06:33:21 10° S 06:39:25 74° E 06:45:27 10° N
APEX 4.2 06:38:44 10° WSW 06:41:47 26° NW 06:45:30 10° N
Cosmos 1655 Rocket 4.2 06:36:05 10° SSW 06:42:07 52° WNW 06:48:15 10° N
Cosmos 2322 Rocket 3.5 06:38:06 10° NW 06:42:14 21° W 06:46:22 10° SSW
Meteor 1-4 Rocket 4.5 06:40:53 10° W 06:42:30 12° WNW 06:44:07 10° NW
CSL-04 Rocket 3.7 06:39:02 10° N 06:44:36 74° WNW 06:50:05 10° SSW
IRAS Rocket 4.2 06:40:31 10° NNE 06:46:04 83° WNW 06:51:39 10° SSW
Cosmos 1553 Rocket 4.1 06:40:05 10° NNW 06:46:08 54° W 06:52:04 10° SSW
Aureole 1 Rocket 2.4 06:46:36 10° SSW 06:49:37 80° ESE 06:53:11 10° NNE
MSX 4.4 06:44:40 10° N 06:49:50 35° WNW 06:54:58 10° SW
SeaSat 1 4.3 06:49:03 10° NNW 06:50:40 12° NW 06:52:16 10° WNW
ATLAS CENTAUR R/B 1.0 06:47:34 10° SW 06:51:14 66° NW 06:54:55 10° NNE
Cosmos 1743 3.4 06:47:54 10° SW 06:51:19 31° WNW 06:54:46 10° NNW
CZ-4C R/B 3.6 06:47:47 10° WNW 06:51:49 20° NNW 06:56:15 10° NNE
Cosmos 1626 Rocket 3.6 06:50:14 10° N 06:54:35 89° ENE 06:58:56 10° S
Cosmos 1892 Rocket 4.4 06:51:56 10° NNW 06:55:44 29° W 06:59:30 10° SSW
YAOGAN 1 2.7 06:51:23 10° NNE 06:55:45 82° ESE 07:00:04 10° S
Cosmos 1484 Rocket 3.3 06:52:11 10° N 06:55:45 35° WNW 06:59:15 10° SW
Cosmos 1842 3.3 06:52:06 10° NNW 06:56:04 74° W 07:00:00 10° S
Cosmos 2237 4.4 06:50:49 10° NNW 06:56:25 59° WSW 07:01:58 10° S
Cosmos 2056 Rocket 3.6 06:51:50 10° NNW 06:56:53 61° WSW 07:01:57 10° S
